カタログに戻る

HONGKOU FUXING

運用中科学SSO
NORAD 57426·PAYLOAD·🇨🇳 China
この衛星名は、まだ公式ソースで確認されていません。

打ち上げ Jul 23, 2023 から Taiyuan Satellite Launch Center

Loading…

次のパス (今後24時間)

TLE

最新Source: Space-Track

元期: Sep 14, 2026, 14:36 UTC

1 57426U 23104C   26257.60876278  .00008085  00000-0  31781-3 0  9994
2 57426  97.2529 319.2362 0016951  87.0737 273.2441 15.25795539175445

AllMySatでHONGKOU FUXINGをリアルタイム追跡

Download on the App Store